Time,TemperatureF,DewpointF,PressureIn,WindDirection,WindDirectionDegrees,WindSpeedMPH,WindSpeedGustMPH,Humidity,HourlyPrecipIn,Conditions,Clouds,dailyrainin,SoftwareType,DateUTC
2013-03-25 00:00:00,55.0,37.4,29.94,WSW,251,6.0,12.3,52,0.00,,,-99.99,FreeWX-Wi 1.02,2013-03-24 23:00:00,
2013-03-25 00:10:00,55.0,35.6,29.94,WSW,255,6.0,8.7,51,0.00,,,-99.99,FreeWX-Wi 1.02,2013-03-24 23:10:00,
2013-03-25 00:20:00,55.2,35.6,29.94,West,262,7.0,11.0,50,0.00,,,-99.99,FreeWX-Wi 1.02,2013-03-24 23:20:00,
2013-03-25 00:30:00,55.4,35.6,29.94,West,270,6.0,11.0,49,0.00,,,-99.99,FreeWX-Wi 1.02,2013-03-24 23:30:00,
2013-03-25 00:40:00,55.0,35.6,29.94,West,277,6.0,8.3,50,0.00,,,-99.99,FreeWX-Wi 1.02,2013-03-24 23:40:00,
2013-03-25 00:50:00,54.9,35.6,29.94,WNW,285,5.0,8.7,51,0.00,,,-99.99,FreeWX-Wi 1.02,2013-03-24 23:50:00,
2013-03-25 01:00:00,54.9,35.6,29.94,WNW,287,6.0,13.2,49,0.00,,,-99.99,FreeWX-Wi 1.02,2013-03-25 00:00:00,
2013-03-25 01:10:00,55.0,33.8,29.94,WNW,288,7.0,13.2,47,0.00,,,-99.99,FreeWX-Wi 1.02,2013-03-25 00:10:00,
2013-03-25 01:20:00,55.0,33.8,29.94,WNW,289,8.0,13.2,47,0.00,,,-99.99,FreeWX-Wi 1.02,2013-03-25 00:20:00,
2013-03-25 01:30:00,54.9,33.8,29.94,WNW,293,8.0,15.4,46,0.00,,,-99.99,FreeWX-Wi 1.02,2013-03-25 00:30:00,
2013-03-25 01:40:00,54.9,33.8,29.94,WNW,292,9.0,14.1,46,0.00,,,-99.99,FreeWX-Wi 1.02,2013-03-25 00:40:00,
2013-03-25 01:50:00,54.9,33.8,29.94,WNW,293,8.0,12.8,46,0.00,,,-99.99,FreeWX-Wi 1.02,2013-03-25 00:50:00,
2013-03-25 02:00:00,54.9,33.8,29.97,WNW,293,8.0,14.5,45,0.00,,,-99.99,FreeWX-Wi 1.02,2013-03-25 01:00:00,
2013-03-25 02:10:00,54.5,33.8,29.97,WNW,302,8.0,11.9,46,0.00,,,-99.99,FreeWX-Wi 1.02,2013-03-25 01:10:00,
2013-03-25 02:20:00,54.3,32.0,29.97,NW,309,8.0,15.0,45,0.00,,,-99.99,FreeWX-Wi 1.02,2013-03-25 01:20:00,
2013-03-25 02:30:00,54.3,32.0,29.97,NW,313,8.0,15.4,45,0.00,,,-99.99,FreeWX-Wi 1.02,2013-03-25 01:30:00,
2013-03-25 02:40:00,54.3,32.0,29.97,NW,313,9.0,13.2,45,0.00,,,-99.99,FreeWX-Wi 1.02,2013-03-25 01:40:00,
2013-03-25 02:50:00,54.1,32.0,29.97,NW,314,9.0,16.8,44,0.00,,,-99.99,FreeWX-Wi 1.02,2013-03-25 01:50:00,
2013-03-25 03:00:00,54.0,32.0,29.94,NW,317,9.0,15.4,44,0.00,,,-99.99,FreeWX-Wi 1.02,2013-03-25 02:00:00,
2013-03-25 03:10:00,54.1,32.0,29.94,NW,321,9.0,14.1,44,0.00,,,-99.99,FreeWX-Wi 1.02,2013-03-25 02:10:00,
2013-03-25 03:20:00,53.8,32.0,29.94,NNW,328,8.0,10.5,45,0.00,,,-99.99,FreeWX-Wi 1.02,2013-03-25 02:20:00,
2013-03-25 03:30:00,53.4,32.0,29.94,NNW,336,7.0,8.3,46,0.00,,,-99.99,FreeWX-Wi 1.02,2013-03-25 02:30:00,
2013-03-25 03:40:00,53.1,32.0,29.94,NNW,341,6.0,13.2,46,0.00,,,-99.99,FreeWX-Wi 1.02,2013-03-25 02:40:00,
2013-03-25 03:50:00,53.1,32.0,29.94,NNW,335,6.0,10.1,47,0.00,,,-99.99,FreeWX-Wi 1.02,2013-03-25 02:50:00,
2013-03-25 04:00:00,52.7,32.0,29.94,NNW,331,6.0,9.6,47,0.00,,,-99.99,FreeWX-Wi 1.02,2013-03-25 03:00:00,
2013-03-25 04:10:00,52.7,32.0,29.94,NW,320,5.0,8.1,47,0.00,,,-99.99,FreeWX-Wi 1.02,2013-03-25 03:10:00,
2013-03-25 04:20:00,52.5,32.0,29.94,NW,315,5.0,8.7,48,0.00,,,-99.99,FreeWX-Wi 1.02,2013-03-25 03:20:00,
2013-03-25 04:30:00,52.3,32.0,29.94,NW,305,5.0,7.6,48,0.00,,,-99.99,FreeWX-Wi 1.02,2013-03-25 03:30:00,
2013-03-25 04:40:00,52.2,32.0,29.94,NW,304,5.0,8.1,48,0.00,,,-99.99,FreeWX-Wi 1.02,2013-03-25 03:40:00,
2013-03-25 04:50:00,52.0,32.0,29.94,NW,305,5.0,8.3,48,0.00,,,-99.99,FreeWX-Wi 1.02,2013-03-25 03:50:00,
2013-03-25 05:00:00,52.0,32.0,29.94,WNW,303,4.0,7.2,49,0.00,,,-99.99,FreeWX-Wi 1.02,2013-03-25 04:00:00,
2013-03-25 05:10:00,51.8,32.0,29.94,WNW,301,4.0,6.3,49,0.00,,,-99.99,FreeWX-Wi 1.02,2013-03-25 04:10:00,
2013-03-25 05:20:00,51.6,32.0,29.94,WNW,299,4.0,7.6,50,0.00,,,-99.99,FreeWX-Wi 1.02,2013-03-25 04:20:00,
2013-03-25 05:30:00,51.4,32.0,29.94,WNW,294,4.0,5.8,50,0.00,,,-99.99,FreeWX-Wi 1.02,2013-03-25 04:30:00,
2013-03-25 05:40:00,51.3,33.8,29.94,WNW,290,4.0,5.8,51,0.00,,,-99.99,FreeWX-Wi 1.02,2013-03-25 04:40:00,
2013-03-25 05:50:00,51.1,33.8,29.94,West,278,3.0,5.8,52,0.00,,,-99.99,FreeWX-Wi 1.02,2013-03-25 04:50:00,
2013-03-25 06:00:00,50.7,33.8,29.97,West,274,4.0,6.7,53,0.00,,,-99.99,FreeWX-Wi 1.02,2013-03-25 05:00:00,
2013-03-25 06:10:00,50.7,33.8,29.97,West,267,4.0,6.3,53,0.00,,,-99.99,FreeWX-Wi 1.02,2013-03-25 05:10:00,
2013-03-25 06:20:00,50.5,33.8,29.97,WSW,258,4.0,5.8,53,0.00,,,-99.99,FreeWX-Wi 1.02,2013-03-25 05:20:00,
2013-03-25 06:30:00,50.4,33.8,29.97,WSW,246,4.0,6.3,54,0.00,,,-99.99,FreeWX-Wi 1.02,2013-03-25 05:30:00,
2013-03-25 06:40:00,50.4,33.8,29.97,SW,234,4.0,5.4,54,0.00,,,-99.99,FreeWX-Wi 1.02,2013-03-25 05:40:00,
2013-03-25 06:50:00,50.4,33.8,29.97,SW,234,4.0,6.3,53,0.00,,,-99.99,FreeWX-Wi 1.02,2013-03-25 05:50:00,
2013-03-25 07:00:00,50.4,33.8,29.97,WSW,238,4.0,6.7,53,0.00,,,-99.99,FreeWX-Wi 1.02,2013-03-25 06:00:00,
2013-03-25 07:10:00,50.4,33.8,29.97,WSW,245,4.0,6.3,53,0.00,,,-99.99,FreeWX-Wi 1.02,2013-03-25 06:10:00,
2013-03-25 07:20:00,50.2,33.8,29.97,WSW,251,4.0,6.7,53,0.00,,,-99.99,FreeWX-Wi 1.02,2013-03-25 06:20:00,
2013-03-25 07:30:00,50.2,33.8,29.97,West,264,4.0,5.8,53,0.00,,,-99.99,FreeWX-Wi 1.02,2013-03-25 06:30:00,
2013-03-25 07:40:00,50.2,33.8,29.97,WNW,282,4.0,7.6,53,0.00,,,-99.99,FreeWX-Wi 1.02,2013-03-25 06:40:00,
2013-03-25 07:50:00,50.4,33.8,29.97,West,279,2.0,3.6,54,0.00,,,-99.99,FreeWX-Wi 1.02,2013-03-25 06:50:00,
2013-03-25 08:00:00,50.7,33.8,30.00,WSW,256,2.0,4.0,54,0.00,,,-99.99,FreeWX-Wi 1.02,2013-03-25 07:00:00,
2013-03-25 08:10:00,51.3,33.8,30.00,SW,229,1.0,3.1,54,0.00,,,-99.99,FreeWX-Wi 1.02,2013-03-25 07:10:00,
2013-03-25 08:20:00,52.2,33.8,30.00,SW,220,2.0,5.4,52,0.00,,,-99.99,FreeWX-Wi 1.02,2013-03-25 07:20:00,
2013-03-25 08:30:00,53.1,33.8,30.00,SW,219,2.0,4.0,51,0.00,,,-99.99,FreeWX-Wi 1.02,2013-03-25 07:30:00,
2013-03-25 08:40:00,53.8,35.6,30.00,SW,224,2.0,5.4,50,0.00,,,-99.99,FreeWX-Wi 1.02,2013-03-25 07:40:00,
2013-03-25 08:50:00,54.7,35.6,30.00,SW,230,2.0,6.7,49,0.00,,,-99.99,FreeWX-Wi 1.02,2013-03-25 07:50:00,
2013-03-25 09:00:00,55.2,33.8,30.00,WSW,240,3.0,7.2,47,0.00,,,-99.99,FreeWX-Wi 1.02,2013-03-25 08:00:00,
2013-03-25 09:10:00,55.9,33.8,30.00,WSW,256,3.0,5.8,46,0.00,,,-99.99,FreeWX-Wi 1.02,2013-03-25 08:10:00,
2013-03-25 09:20:00,56.8,35.6,30.00,WNW,282,4.0,7.6,46,0.00,,,-99.99,FreeWX-Wi 1.02,2013-03-25 08:20:00,
2013-03-25 09:30:00,58.1,35.6,30.00,NW,314,4.0,8.3,45,0.00,,,-99.99,FreeWX-Wi 1.02,2013-03-25 08:30:00,
2013-03-25 09:40:00,58.8,35.6,30.00,NNW,329,4.0,5.8,44,0.00,,,-99.99,FreeWX-Wi 1.02,2013-03-25 08:40:00,
2013-03-25 09:50:00,59.9,37.4,30.00,NNW,332,4.0,5.8,44,0.00,,,-99.99,FreeWX-Wi 1.02,2013-03-25 08:50:00,
2013-03-25 10:00:00,61.0,37.4,30.00,NNW,334,3.0,6.3,42,0.00,,,-99.99,FreeWX-Wi 1.02,2013-03-25 09:00:00,
2013-03-25 10:10:00,61.9,35.6,30.00,NNW,335,2.0,4.5,40,0.00,,,-99.99,FreeWX-Wi 1.02,2013-03-25 09:10:00,
2013-03-25 10:20:00,62.6,35.6,30.00,North,0,1.0,4.9,39,0.00,,,-99.99,FreeWX-Wi 1.02,2013-03-25 09:20:00,
2013-03-25 10:30:00,63.1,35.6,30.00,North,8,1.0,5.4,38,0.00,,,-99.99,FreeWX-Wi 1.02,2013-03-25 09:30:00,
2013-03-25 10:40:00,63.7,35.6,30.00,North,357,2.0,8.7,37,0.00,,,-99.99,FreeWX-Wi 1.02,2013-03-25 09:40:00,
2013-03-25 11:00:00,64.4,35.6,30.00,NNW,337,4.0,6.3,36,0.00,,,-99.99,FreeWX-Wi 1.02,2013-03-25 10:00:00,
2013-03-25 11:10:00,64.8,35.6,30.00,NW,318,3.0,5.4,36,0.00,,,-99.99,FreeWX-Wi 1.02,2013-03-25 10:10:00,
2013-03-25 11:20:00,64.9,37.4,30.00,NW,319,3.0,6.3,36,0.00,,,-99.99,FreeWX-Wi 1.02,2013-03-25 10:20:00,
2013-03-25 11:30:00,65.3,37.4,30.00,North,3,2.0,6.3,36,0.00,,,-99.99,FreeWX-Wi 1.02,2013-03-25 10:30:00,
2013-03-25 11:40:00,65.5,37.4,30.00,ENE,64,2.0,4.9,36,0.00,,,-99.99,FreeWX-Wi 1.02,2013-03-25 10:40:00,
2013-03-25 11:50:00,66.0,37.4,30.00,ENE,62,2.0,8.3,35,0.00,,,-99.99,FreeWX-Wi 1.02,2013-03-25 10:50:00,
2013-03-25 12:00:00,66.2,37.4,30.00,NNW,330,3.0,6.3,35,0.00,,,-99.99,FreeWX-Wi 1.02,2013-03-25 11:00:00,
2013-03-25 12:10:00,66.0,37.4,30.00,NW,316,4.0,6.3,35,0.00,,,-99.99,FreeWX-Wi 1.02,2013-03-25 11:10:00,
2013-03-25 12:20:00,65.8,37.4,30.00,NNE,12,3.0,6.3,35,0.00,,,-99.99,FreeWX-Wi 1.02,2013-03-25 11:20:00,
2013-03-25 12:30:00,66.4,35.6,30.00,NE,40,2.0,6.3,34,0.00,,,-99.99,FreeWX-Wi 1.02,2013-03-25 11:30:00,
2013-03-25 12:40:00,67.1,37.4,30.00,NNE,17,2.0,8.3,34,0.00,,,-99.99,FreeWX-Wi 1.02,2013-03-25 11:40:00,
2013-03-25 12:50:00,67.5,37.4,30.00,NNW,343,2.0,6.3,34,0.00,,,-99.99,FreeWX-Wi 1.02,2013-03-25 11:50:00,
2013-03-25 13:00:00,68.0,37.4,30.00,North,350,2.0,5.8,34,0.00,,,-99.99,FreeWX-Wi 1.02,2013-03-25 12:00:00,
2013-03-25 13:10:00,67.5,37.4,30.00,NNE,14,2.0,6.7,34,0.00,,,-99.99,FreeWX-Wi 1.02,2013-03-25 12:10:00,
2013-03-25 13:20:00,66.7,37.4,29.97,NNE,25,3.0,8.1,35,0.00,,,-99.99,FreeWX-Wi 1.02,2013-03-25 12:20:00,
2013-03-25 13:30:00,66.7,37.4,29.97,NE,42,2.0,4.9,35,0.00,,,-99.99,FreeWX-Wi 1.02,2013-03-25 12:30:00,
2013-03-25 13:40:00,67.5,37.4,29.97,North,7,2.0,8.3,35,0.00,,,-99.99,FreeWX-Wi 1.02,2013-03-25 12:40:00,
2013-03-25 13:50:00,68.5,37.4,29.97,WNW,299,3.0,10.1,34,0.00,,,-99.99,FreeWX-Wi 1.02,2013-03-25 12:50:00,
2013-03-25 14:00:00,68.2,37.4,29.97,WNW,292,4.0,11.0,34,0.00,,,-99.99,FreeWX-Wi 1.02,2013-03-25 13:00:00,
2013-03-25 14:10:00,68.7,39.2,29.97,WNW,296,4.0,8.1,34,0.00,,,-99.99,FreeWX-Wi 1.02,2013-03-25 13:10:00,
2013-03-25 14:20:00,68.2,37.4,29.97,NNW,337,4.0,7.6,34,0.00,,,-99.99,FreeWX-Wi 1.02,2013-03-25 13:20:00,
2013-03-25 14:30:00,68.0,37.4,29.97,North,354,3.0,6.3,34,0.00,,,-99.99,FreeWX-Wi 1.02,2013-03-25 13:30:00,
2013-03-25 14:40:00,67.3,37.4,29.97,NNE,29,3.0,6.3,35,0.00,,,-99.99,FreeWX-Wi 1.02,2013-03-25 13:40:00,
2013-03-25 14:50:00,66.7,37.4,29.94,NE,49,3.0,7.2,35,0.00,,,-99.99,FreeWX-Wi 1.02,2013-03-25 13:50:00,
2013-03-25 15:00:00,66.7,37.4,29.94,ENE,66,3.0,6.7,35,0.00,,,-99.99,FreeWX-Wi 1.02,2013-03-25 14:00:00,
2013-03-25 15:10:00,66.6,37.4,29.94,NE,50,3.0,6.3,35,0.00,,,-99.99,FreeWX-Wi 1.02,2013-03-25 14:10:00,
2013-03-25 15:20:00,66.4,37.4,29.94,NE,45,3.0,6.3,35,0.00,,,-99.99,FreeWX-Wi 1.02,2013-03-25 14:20:00,
2013-03-25 15:30:00,66.2,37.4,29.94,NNE,27,3.0,5.4,35,0.00,,,-99.99,FreeWX-Wi 1.02,2013-03-25 14:30:00,
2013-03-25 15:40:00,66.4,37.4,29.94,NNE,21,3.0,5.4,35,0.00,,,-99.99,FreeWX-Wi 1.02,2013-03-25 14:40:00,
2013-03-25 15:50:00,66.9,37.4,29.94,NNE,15,2.0,5.4,35,0.00,,,-99.99,FreeWX-Wi 1.02,2013-03-25 14:50:00,
2013-03-25 16:00:00,66.9,37.4,29.94,NNE,31,1.0,6.3,35,0.00,,,-99.99,FreeWX-Wi 1.02,2013-03-25 15:00:00,
2013-03-25 16:10:00,66.7,37.4,29.94,NNE,33,1.0,6.3,36,0.00,,,-99.99,FreeWX-Wi 1.02,2013-03-25 15:10:00,
2013-03-25 16:20:00,66.6,37.4,29.94,NNE,18,2.0,6.3,36,0.00,,,-99.99,FreeWX-Wi 1.02,2013-03-25 15:20:00,
2013-03-25 16:30:00,66.4,37.4,29.94,NNE,15,3.0,6.7,36,0.00,,,-99.99,FreeWX-Wi 1.02,2013-03-25 15:30:00,
2013-03-25 16:40:00,65.8,37.4,29.94,NNE,26,3.0,4.9,37,0.00,,,-99.99,FreeWX-Wi 1.02,2013-03-25 15:40:00,
2013-03-25 16:50:00,66.0,39.2,29.94,NNE,31,2.0,4.0,38,0.00,,,-99.99,FreeWX-Wi 1.02,2013-03-25 15:50:00,
2013-03-25 17:00:00,66.0,39.2,29.94,NNE,19,2.0,5.4,38,0.00,,,-99.99,FreeWX-Wi 1.02,2013-03-25 16:00:00,
2013-03-25 17:10:00,65.7,39.2,29.94,NNW,339,3.0,6.3,38,0.00,,,-99.99,FreeWX-Wi 1.02,2013-03-25 16:10:00,
2013-03-25 17:20:00,65.3,39.2,29.94,WNW,294,4.0,8.1,40,0.00,,,-99.99,FreeWX-Wi 1.02,2013-03-25 16:20:00,
2013-03-25 17:40:00,64.8,39.2,29.94,WNW,289,5.0,10.5,39,0.00,,,-99.99,FreeWX-Wi 1.02,2013-03-25 16:40:00,
2013-03-25 17:50:00,64.8,39.2,29.94,NW,308,6.0,8.3,39,0.00,,,-99.99,FreeWX-Wi 1.02,2013-03-25 16:50:00,
2013-03-25 18:00:00,64.4,37.4,29.94,NW,312,5.0,8.7,39,0.00,,,-99.99,FreeWX-Wi 1.02,2013-03-25 17:00:00,
2013-03-25 18:10:00,64.2,39.2,29.94,NW,315,5.0,8.7,40,0.00,,,-99.99,FreeWX-Wi 1.02,2013-03-25 17:10:00,
2013-03-25 18:20:00,63.9,39.2,29.94,NW,316,5.0,8.3,41,0.00,,,-99.99,FreeWX-Wi 1.02,2013-03-25 17:20:00,
2013-03-25 18:30:00,63.7,39.2,29.94,NW,317,4.0,5.8,41,0.00,,,-99.99,FreeWX-Wi 1.02,2013-03-25 17:30:00,
2013-03-25 18:40:00,63.5,39.2,29.94,NW,317,4.0,6.7,42,0.00,,,-99.99,FreeWX-Wi 1.02,2013-03-25 17:40:00,
2013-03-25 18:50:00,63.3,39.2,29.94,NW,320,4.0,5.8,42,0.00,,,-99.99,FreeWX-Wi 1.02,2013-03-25 17:50:00,
2013-03-25 19:00:00,63.0,39.2,29.94,NW,325,4.0,6.3,43,0.00,,,-99.99,FreeWX-Wi 1.02,2013-03-25 18:00:00,
2013-03-25 19:10:00,62.6,39.2,29.94,NW,320,4.0,5.8,44,0.00,,,-99.99,FreeWX-Wi 1.02,2013-03-25 18:10:00,
2013-03-25 19:20:00,62.2,39.2,29.94,NW,306,3.0,5.4,44,0.00,,,-99.99,FreeWX-Wi 1.02,2013-03-25 18:20:00,
2013-03-25 19:30:00,61.9,39.2,29.94,WNW,287,2.0,6.3,45,0.00,,,-99.99,FreeWX-Wi 1.02,2013-03-25 18:30:00,
2013-03-25 19:40:00,61.5,39.2,29.94,West,275,2.0,3.6,45,0.00,,,-99.99,FreeWX-Wi 1.02,2013-03-25 18:40:00,
2013-03-25 19:50:00,61.2,39.2,29.94,North,-999,0.0,0.0,45,0.00,,,-99.99,FreeWX-Wi 1.02,2013-03-25 18:50:00,
2013-03-25 20:00:00,60.8,39.2,29.94,North,-999,0.0,0.0,45,0.00,,,-99.99,FreeWX-Wi 1.02,2013-03-25 19:00:00,
2013-03-25 20:10:00,60.4,39.2,29.94,North,-999,0.0,0.0,47,0.00,,,-99.99,FreeWX-Wi 1.02,2013-03-25 19:10:00,
2013-03-25 20:20:00,60.1,39.2,29.94,North,-999,0.0,0.0,48,0.00,,,-99.99,FreeWX-Wi 1.02,2013-03-25 19:20:00,
2013-03-25 20:30:00,59.7,39.2,29.94,North,-999,0.0,0.0,48,0.00,,,-99.99,FreeWX-Wi 1.02,2013-03-25 19:30:00,
2013-03-25 20:40:00,59.5,39.2,29.94,North,-999,0.0,0.0,49,0.00,,,-99.99,FreeWX-Wi 1.02,2013-03-25 19:40:00,
2013-03-25 20:50:00,59.4,39.2,29.94,North,-999,0.0,4.0,49,0.00,,,-99.99,FreeWX-Wi 1.02,2013-03-25 19:50:00,
2013-03-25 21:00:00,59.2,39.2,29.94,North,-999,0.0,0.0,49,0.00,,,-99.99,FreeWX-Wi 1.02,2013-03-25 20:00:00,
2013-03-25 21:10:00,58.8,39.2,29.94,North,-999,0.0,0.0,50,0.00,,,-99.99,FreeWX-Wi 1.02,2013-03-25 20:10:00,
2013-03-25 21:20:00,58.6,39.2,29.94,North,-999,0.0,0.0,51,0.00,,,-99.99,FreeWX-Wi 1.02,2013-03-25 20:20:00,
2013-03-25 21:30:00,58.5,39.2,29.94,North,-999,0.0,0.0,51,0.00,,,-99.99,FreeWX-Wi 1.02,2013-03-25 20:30:00,
2013-03-25 21:40:00,58.1,39.2,29.94,North,-999,0.0,0.0,52,0.00,,,-99.99,FreeWX-Wi 1.02,2013-03-25 20:40:00,
2013-03-25 21:50:00,57.9,39.2,29.94,North,-999,0.0,0.0,52,0.00,,,-99.99,FreeWX-Wi 1.02,2013-03-25 20:50:00,
2013-03-25 22:00:00,57.6,39.2,29.94,North,-999,0.0,0.0,52,0.00,,,-99.99,FreeWX-Wi 1.02,2013-03-25 21:00:00,
2013-03-25 22:10:00,57.2,39.2,29.94,North,-999,0.0,0.0,53,0.00,,,-99.99,FreeWX-Wi 1.02,2013-03-25 21:10:00,
2013-03-25 22:20:00,57.0,39.2,29.94,North,-999,0.0,3.6,53,0.00,,,-99.99,FreeWX-Wi 1.02,2013-03-25 21:20:00,
2013-03-25 22:30:00,56.8,39.2,29.94,North,-999,0.0,2.2,54,0.00,,,-99.99,FreeWX-Wi 1.02,2013-03-25 21:30:00,
2013-03-25 22:40:00,56.8,39.2,29.94,North,-999,0.0,0.0,54,0.00,,,-99.99,FreeWX-Wi 1.02,2013-03-25 21:40:00,
2013-03-25 22:50:00,56.7,39.2,29.94,North,-999,0.0,0.0,53,0.00,,,-99.99,FreeWX-Wi 1.02,2013-03-25 21:50:00,
2013-03-25 23:00:00,56.7,39.2,29.94,North,-999,0.0,0.0,53,0.00,,,-99.99,FreeWX-Wi 1.02,2013-03-25 22:00:00,
2013-03-25 23:10:00,56.7,39.2,29.94,North,-999,0.0,0.0,52,0.00,,,-99.99,FreeWX-Wi 1.02,2013-03-25 22:10:00,
2013-03-25 23:20:00,56.5,37.4,29.94,North,-999,0.0,0.0,52,0.00,,,-99.99,FreeWX-Wi 1.02,2013-03-25 22:20:00,
2013-03-25 23:30:00,56.3,39.2,29.94,North,-999,0.0,3.1,53,0.00,,,-99.99,FreeWX-Wi 1.02,2013-03-25 22:30:00,
2013-03-25 23:40:00,56.1,39.2,29.94,North,-999,0.0,3.1,53,0.00,,,-99.99,FreeWX-Wi 1.02,2013-03-25 22:40:00,
2013-03-25 23:50:00,55.9,37.4,29.94,North,-999,0.0,2.7,53,0.00,,,-99.99,FreeWX-Wi 1.02,2013-03-25 22:50:00,